Weather WX

World > North America > United States > Massachusetts

West Boylston, Massachusetts Regional Weather

Lat: 42.37N, Lon: 71.78W
Wx Zone: MAZ004
Feedback

West Boylston, MA Regional Weather

Expires:201906160400;;139540
ASUS41 KOKX 160306
RWROKX

Regional Weather Roundup
National Weather Service New York NY
1100 PM EDT SAT JUN 15 2019

Note: "FAIR" indicates few or no clouds below 12,000 feet with no
significant weather and/or obstructions to visibility.


CTZ002-004>006-009-010-012-RIZ004-006-007-MAZ004-011-015-160400-
Southern New England

 In CT
  
CITY           SKY/WX    TMP DP  RH WIND       PRES   REMARKS
Bradley Intl   CLOUDY    71  55  56 S9        29.93S                  
Hartford       CLOUDY    70  55  59 S9        29.93F                  
Danbury        FAIR      69  55  60 S7        29.96F                  
Wtrbury/Oxford FAIR      66  57  72 SW7       29.97F                  
Norwalk Harbor   N/A     66 N/A N/A S15         N/A                   
Bridgeport     FAIR      69  58  67 SW16G22   29.95F                  
Meriden        FAIR      68  55  63 S8        29.95F                  
New Haven      FAIR      69  59  70 SW3       29.96F                  
Chester        FAIR      66  57  72 SW10      29.98S                  
Groton         FAIR      67  56  67 CALM      29.97F                  
Willimantic    FAIR      67  53  61 S5        29.96F                  

 In RI
  
CITY           SKY/WX    TMP DP  RH WIND       PRES   REMARKS
Providence     MOCLDY    68  52  56 SW14G22   29.96F                  
Block Island   CLOUDY    64  55  72 SW18      30.00F                  
Westerly       MOCLDY    67  56  67 SW6       29.98F                  
 
In MA
  
CITY           SKY/WX    TMP DP  RH WIND       PRES   REMARKS
Boston         CLOUDY    71  51  49 SW13      29.92S                  
Worcester      CLOUDY    65  54  67 SW15      29.94F                  
Westfield      CLOUDY    70  55  59 S5        29.91F                  
Provincetown   FAIR      63  55  75 SW18      29.96F                  
Nantucket      MOCLDY    63  55  75 SW21G26   30.01F                  
$$


SKY/WX - Weather  TMP - Temperature  DP - Dew Point  RH - Relative Humidity
WIND - Wind Direction/Speed PRES - Barometric Pressure VSB - Visibility
WCI - Wind Chill Index E13G22 Wind - East Wind 13 mph/Gusts of 22 mph